Year,Month,Day,Hour,Minute,Value (Times are PST for temperature in C)
2016,08,24,00,00,17.00
2016,08,24,00,01,16.90
2016,08,24,00,02,16.90
2016,08,24,00,03,16.90
2016,08,24,00,04,16.80
2016,08,24,00,05,16.80
2016,08,24,00,06,16.80
2016,08,24,00,07,16.80
2016,08,24,00,08,16.70
2016,08,24,00,09,16.70
2016,08,24,00,10,16.70
2016,08,24,00,11,16.70
2016,08,24,00,12,16.60
2016,08,24,00,13,16.60
2016,08,24,00,14,16.60
2016,08,24,00,15,16.60
2016,08,24,00,16,16.60
2016,08,24,00,17,16.60
2016,08,24,00,18,16.60
2016,08,24,00,19,16.60
2016,08,24,00,20,16.60
2016,08,24,00,21,16.60
2016,08,24,00,22,16.60
2016,08,24,00,23,16.60
2016,08,24,00,24,16.50
2016,08,24,00,25,16.50
2016,08,24,00,26,16.50
2016,08,24,00,27,16.40
2016,08,24,00,28,16.40
2016,08,24,00,29,16.40
2016,08,24,00,30,16.40
2016,08,24,00,31,16.40
2016,08,24,00,32,16.40
2016,08,24,00,33,16.30
2016,08,24,00,34,16.30
2016,08,24,00,35,16.30
2016,08,24,00,36,16.30
2016,08,24,00,37,16.30
2016,08,24,00,38,16.30
2016,08,24,00,39,16.30
2016,08,24,00,40,16.30
2016,08,24,00,41,16.30
2016,08,24,00,42,16.30
2016,08,24,00,43,16.30
2016,08,24,00,44,16.30
2016,08,24,00,45,16.30
2016,08,24,00,46,16.30
2016,08,24,00,47,16.30
2016,08,24,00,48,16.30
2016,08,24,00,49,16.30
2016,08,24,00,50,16.20
2016,08,24,00,51,16.20
2016,08,24,00,52,16.20
2016,08,24,00,53,16.10
2016,08,24,00,54,16.10
2016,08,24,00,55,16.10
2016,08,24,00,56,16.00
2016,08,24,00,57,16.00
2016,08,24,00,58,15.90
2016,08,24,00,59,15.90
2016,08,24,01,00,15.90
2016,08,24,01,01,15.90
2016,08,24,01,02,15.90
2016,08,24,01,03,15.90
2016,08,24,01,04,15.90
2016,08,24,01,05,15.90
2016,08,24,01,06,15.90
2016,08,24,01,07,15.90
2016,08,24,01,08,15.90
2016,08,24,01,09,15.90
2016,08,24,01,10,15.90
2016,08,24,01,11,15.90
2016,08,24,01,12,16.00
2016,08,24,01,13,16.00
2016,08,24,01,14,16.00
2016,08,24,01,15,16.00
2016,08,24,01,16,16.00
2016,08,24,01,17,16.00
2016,08,24,01,18,16.00
2016,08,24,01,19,16.00
2016,08,24,01,20,16.00
2016,08,24,01,21,16.00
2016,08,24,01,22,16.00
2016,08,24,01,23,16.00
2016,08,24,01,24,16.00
2016,08,24,01,25,16.10
2016,08,24,01,26,16.10
2016,08,24,01,27,16.10
2016,08,24,01,28,16.10
2016,08,24,01,29,16.10
2016,08,24,01,30,16.20
2016,08,24,01,31,16.20
2016,08,24,01,32,16.20
2016,08,24,01,33,16.20
2016,08,24,01,34,16.30
2016,08,24,01,35,16.30
2016,08,24,01,36,16.30
2016,08,24,01,37,16.30
2016,08,24,01,38,16.40
2016,08,24,01,39,16.50
2016,08,24,01,40,16.50
2016,08,24,01,41,16.60
2016,08,24,01,42,16.60
2016,08,24,01,43,16.70
2016,08,24,01,44,16.70
2016,08,24,01,45,16.70
2016,08,24,01,46,16.70
2016,08,24,01,47,16.70
2016,08,24,01,48,16.70
2016,08,24,01,49,16.70
2016,08,24,01,50,16.70
2016,08,24,01,51,16.70
2016,08,24,01,52,16.70
2016,08,24,01,53,16.70
2016,08,24,01,54,16.60
2016,08,24,01,55,16.60
2016,08,24,01,56,16.60
2016,08,24,01,57,16.50
2016,08,24,01,58,16.50
2016,08,24,01,59,16.50
2016,08,24,02,00,16.50
2016,08,24,02,01,16.50
2016,08,24,02,02,16.50
2016,08,24,02,03,16.50
2016,08,24,02,04,16.50
2016,08,24,02,05,16.50
2016,08,24,02,06,16.50
2016,08,24,02,07,16.40
2016,08,24,02,08,16.40
2016,08,24,02,09,16.40
2016,08,24,02,10,16.30
2016,08,24,02,11,16.30
2016,08,24,02,12,16.20
2016,08,24,02,13,16.20
2016,08,24,02,14,16.20
2016,08,24,02,15,16.20
2016,08,24,02,16,16.20
2016,08,24,02,17,16.20
2016,08,24,02,18,16.20
2016,08,24,02,19,16.20
2016,08,24,02,20,16.20
2016,08,24,02,21,16.20
2016,08,24,02,22,16.20
2016,08,24,02,23,16.20
2016,08,24,02,24,16.30
2016,08,24,02,25,16.30
2016,08,24,02,26,16.40
2016,08,24,02,27,16.40
2016,08,24,02,28,16.50
2016,08,24,02,29,16.50
2016,08,24,02,30,16.50
2016,08,24,02,31,16.60
2016,08,24,02,32,16.60
2016,08,24,02,33,16.60
2016,08,24,02,34,16.60
2016,08,24,02,35,16.60
2016,08,24,02,36,16.60
2016,08,24,02,37,16.60
2016,08,24,02,38,16.60
2016,08,24,02,39,16.70
2016,08,24,02,40,16.60
2016,08,24,02,41,16.60
2016,08,24,02,42,16.60
2016,08,24,02,43,16.60
2016,08,24,02,44,16.70
2016,08,24,02,45,16.60
2016,08,24,02,46,16.60
2016,08,24,02,47,16.60
2016,08,24,02,48,16.60
2016,08,24,02,49,16.60
2016,08,24,02,50,16.60
2016,08,24,02,51,16.60
2016,08,24,02,52,16.60
2016,08,24,02,53,16.60
2016,08,24,02,54,16.60
2016,08,24,02,55,16.60
2016,08,24,02,56,16.60
2016,08,24,02,57,16.60
2016,08,24,02,58,16.50
2016,08,24,02,59,16.50
2016,08,24,03,00,16.50
2016,08,24,03,01,16.40
2016,08,24,03,02,16.40
2016,08,24,03,03,16.30
2016,08,24,03,04,16.30
2016,08,24,03,05,16.30
2016,08,24,03,06,16.30
2016,08,24,03,07,16.30
2016,08,24,03,08,16.20
2016,08,24,03,09,16.20
2016,08,24,03,10,16.20
2016,08,24,03,11,16.20
2016,08,24,03,12,16.10
2016,08,24,03,13,16.10
2016,08,24,03,14,16.10
2016,08,24,03,15,16.10
2016,08,24,03,16,16.20
2016,08,24,03,17,16.20
2016,08,24,03,18,16.20
2016,08,24,03,19,16.20
2016,08,24,03,20,16.30
2016,08,24,03,21,16.30
2016,08,24,03,22,16.40
2016,08,24,03,23,16.40
2016,08,24,03,24,16.50
2016,08,24,03,25,16.60
2016,08,24,03,26,16.60
2016,08,24,03,27,16.70
2016,08,24,03,28,16.70
2016,08,24,03,29,16.80
2016,08,24,03,30,16.80
2016,08,24,03,31,16.90
2016,08,24,03,32,16.90
2016,08,24,03,33,17.00
2016,08,24,03,34,17.10
2016,08,24,03,35,17.20
2016,08,24,03,36,17.20
2016,08,24,03,37,17.30
2016,08,24,03,38,17.30
2016,08,24,03,39,17.30
2016,08,24,03,40,17.40
2016,08,24,03,41,17.40
2016,08,24,03,42,17.40
2016,08,24,03,43,17.50
2016,08,24,03,44,17.50
2016,08,24,03,45,17.50
2016,08,24,03,46,17.60
2016,08,24,03,47,17.60
2016,08,24,03,48,17.60
2016,08,24,03,49,17.60
2016,08,24,03,50,17.50
2016,08,24,03,51,17.50
2016,08,24,03,52,17.50
2016,08,24,03,53,17.50
2016,08,24,03,54,17.40
2016,08,24,03,55,17.40
2016,08,24,03,56,17.40
2016,08,24,03,57,17.40
2016,08,24,03,58,17.40
2016,08,24,03,59,17.40
2016,08,24,04,00,17.40
2016,08,24,04,01,17.40
2016,08,24,04,02,17.40
2016,08,24,04,03,17.40
2016,08,24,04,04,17.40
2016,08,24,04,05,17.40
2016,08,24,04,06,17.40
2016,08,24,04,07,17.40
2016,08,24,04,08,17.40
2016,08,24,04,09,17.40
2016,08,24,04,10,17.40
2016,08,24,04,11,17.50
2016,08,24,04,12,17.50
2016,08,24,04,13,17.50
2016,08,24,04,14,17.50
2016,08,24,04,15,17.50
2016,08,24,04,16,17.40
2016,08,24,04,17,17.40
2016,08,24,04,18,17.30
2016,08,24,04,19,17.20
2016,08,24,04,20,17.00
2016,08,24,04,21,16.90
2016,08,24,04,22,16.80
2016,08,24,04,23,16.70
2016,08,24,04,24,16.60
2016,08,24,04,25,16.50
2016,08,24,04,26,16.40
2016,08,24,04,27,16.30
2016,08,24,04,28,16.30
2016,08,24,04,29,16.20
2016,08,24,04,30,16.20
2016,08,24,04,31,16.20
2016,08,24,04,32,16.20
2016,08,24,04,33,16.20
2016,08,24,04,34,16.30
2016,08,24,04,35,16.30
2016,08,24,04,36,16.40
2016,08,24,04,37,16.40
2016,08,24,04,38,16.50
2016,08,24,04,39,16.50
2016,08,24,04,40,16.60
2016,08,24,04,41,16.60
2016,08,24,04,42,16.60
2016,08,24,04,43,16.70
2016,08,24,04,44,16.70
2016,08,24,04,45,16.80
2016,08,24,04,46,16.80
2016,08,24,04,47,16.80
2016,08,24,04,48,16.80
2016,08,24,04,49,16.80
2016,08,24,04,50,16.70
2016,08,24,04,51,16.70
2016,08,24,04,52,16.70
2016,08,24,04,53,16.70
2016,08,24,04,54,16.70
2016,08,24,04,55,16.70
2016,08,24,04,56,16.70
2016,08,24,04,57,16.70
2016,08,24,04,58,16.80
2016,08,24,04,59,16.80
2016,08,24,05,00,16.80
2016,08,24,05,01,16.80
2016,08,24,05,02,16.80
2016,08,24,05,03,16.90
2016,08,24,05,04,16.90
2016,08,24,05,05,16.90
2016,08,24,05,06,16.90
2016,08,24,05,07,16.90
2016,08,24,05,08,16.90
2016,08,24,05,09,16.90
2016,08,24,05,10,16.90
2016,08,24,05,11,16.90
2016,08,24,05,12,16.90
2016,08,24,05,13,16.90
2016,08,24,05,14,16.90
2016,08,24,05,15,16.90
2016,08,24,05,16,16.90
2016,08,24,05,17,16.90
2016,08,24,05,18,16.90
2016,08,24,05,19,16.90
2016,08,24,05,20,16.90
2016,08,24,05,21,16.90
2016,08,24,05,22,16.90
2016,08,24,05,23,16.80
2016,08,24,05,24,16.80
2016,08,24,05,25,16.80
2016,08,24,05,26,16.80
2016,08,24,05,27,16.80
2016,08,24,05,28,16.80
2016,08,24,05,29,16.80
2016,08,24,05,30,16.80
2016,08,24,05,31,16.80
2016,08,24,05,32,16.80
2016,08,24,05,33,16.80
2016,08,24,05,34,16.80
2016,08,24,05,35,16.70
2016,08,24,05,36,16.70
2016,08,24,05,37,16.70
2016,08,24,05,38,16.70
2016,08,24,05,39,16.70
2016,08,24,05,40,16.70
2016,08,24,05,41,16.60
2016,08,24,05,42,16.60
2016,08,24,05,43,16.60
2016,08,24,05,44,16.50
2016,08,24,05,45,16.50
2016,08,24,05,46,16.50
2016,08,24,05,47,16.40
2016,08,24,05,48,16.40
2016,08,24,05,49,16.40
2016,08,24,05,50,16.30
2016,08,24,05,51,16.30
2016,08,24,05,52,16.30
2016,08,24,05,53,16.20
2016,08,24,05,54,16.20
2016,08,24,05,55,16.20
2016,08,24,05,56,16.20
2016,08,24,05,57,16.20
2016,08,24,05,58,16.10
2016,08,24,05,59,16.10
2016,08,24,06,00,16.10
2016,08,24,06,01,16.20
2016,08,24,06,02,16.20
2016,08,24,06,03,16.20
2016,08,24,06,04,16.20
2016,08,24,06,05,16.20
2016,08,24,06,06,16.20
2016,08,24,06,07,16.20
2016,08,24,06,08,16.20
2016,08,24,06,09,16.20
2016,08,24,06,10,16.20
2016,08,24,06,11,16.20
2016,08,24,06,12,16.20
2016,08,24,06,13,16.20
2016,08,24,06,14,16.20
2016,08,24,06,15,16.20
2016,08,24,06,16,16.20
2016,08,24,06,17,16.20
2016,08,24,06,18,16.30
2016,08,24,06,19,16.30
2016,08,24,06,20,16.30
2016,08,24,06,21,16.30
2016,08,24,06,22,16.40
2016,08,24,06,23,16.40
2016,08,24,06,24,16.40
2016,08,24,06,25,16.40
2016,08,24,06,26,16.40
2016,08,24,06,27,16.40
2016,08,24,06,28,16.40
2016,08,24,06,29,16.50
2016,08,24,06,30,16.50
2016,08,24,06,31,16.50
2016,08,24,06,32,16.50
2016,08,24,06,33,16.50
2016,08,24,06,34,16.50
2016,08,24,06,35,16.50
2016,08,24,06,36,16.50
2016,08,24,06,37,16.50
2016,08,24,06,38,16.50
2016,08,24,06,39,16.40
2016,08,24,06,40,16.40
2016,08,24,06,41,16.40
2016,08,24,06,42,16.40
2016,08,24,06,43,16.40
2016,08,24,06,44,16.40
2016,08,24,06,45,16.40
2016,08,24,06,46,16.40
2016,08,24,06,47,16.40
2016,08,24,06,48,16.50
2016,08,24,06,49,16.50
2016,08,24,06,50,16.50
2016,08,24,06,51,16.50
2016,08,24,06,52,16.50
2016,08,24,06,53,16.50
2016,08,24,06,54,16.50
2016,08,24,06,55,16.60
2016,08,24,06,56,16.60
2016,08,24,06,57,16.60
2016,08,24,06,58,16.50
2016,08,24,06,59,16.50
2016,08,24,07,00,16.40
2016,08,24,07,01,16.40
2016,08,24,07,02,16.40
2016,08,24,07,03,16.40
2016,08,24,07,04,16.30
2016,08,24,07,05,16.30
2016,08,24,07,06,16.30
2016,08,24,07,07,16.20
2016,08,24,07,08,16.20
2016,08,24,07,09,16.20
2016,08,24,07,10,16.10
2016,08,24,07,11,16.10
2016,08,24,07,12,16.10
2016,08,24,07,13,16.10
2016,08,24,07,14,16.10
2016,08,24,07,15,16.10
2016,08,24,07,16,16.10
2016,08,24,07,17,16.10
2016,08,24,07,18,16.10
2016,08,24,07,19,16.10
2016,08,24,07,20,16.10
2016,08,24,07,21,16.20
2016,08,24,07,22,16.20
2016,08,24,07,23,16.20
2016,08,24,07,24,16.20
2016,08,24,07,25,16.20
2016,08,24,07,26,16.30
2016,08,24,07,27,16.30
2016,08,24,07,28,16.30
2016,08,24,07,29,16.30
2016,08,24,07,30,16.40
2016,08,24,07,31,16.40
2016,08,24,07,32,16.50
2016,08,24,07,33,16.50
2016,08,24,07,34,16.60
2016,08,24,07,35,16.70
2016,08,24,07,36,16.70
2016,08,24,07,37,16.80
2016,08,24,07,38,16.90
2016,08,24,07,39,17.00
2016,08,24,07,40,17.00
2016,08,24,07,41,17.10
2016,08,24,07,42,17.10
2016,08,24,07,43,17.10
2016,08,24,07,44,17.20
2016,08,24,07,45,17.20
2016,08,24,07,46,17.30
2016,08,24,07,47,17.30
2016,08,24,07,48,17.40
2016,08,24,07,49,17.40
2016,08,24,07,50,17.50
2016,08,24,07,51,17.50
2016,08,24,07,52,17.60
2016,08,24,07,53,17.70
2016,08,24,07,54,17.70
2016,08,24,07,55,17.70
2016,08,24,07,56,17.70
2016,08,24,07,57,17.80
2016,08,24,07,58,17.80
2016,08,24,07,59,17.80
2016,08,24,08,00,17.80
2016,08,24,08,01,17.90
2016,08,24,08,02,17.90
2016,08,24,08,03,17.90
2016,08,24,08,04,17.90
2016,08,24,08,05,17.90
2016,08,24,08,06,17.90
2016,08,24,08,07,18.00
2016,08,24,08,08,18.00
2016,08,24,08,09,18.10
2016,08,24,08,10,18.10
2016,08,24,08,11,18.10
2016,08,24,08,12,18.20
2016,08,24,08,13,18.20
2016,08,24,08,14,18.30
2016,08,24,08,15,18.30
2016,08,24,08,16,18.30
2016,08,24,08,17,18.40
2016,08,24,08,18,18.50
2016,08,24,08,19,18.50
2016,08,24,08,20,18.60
2016,08,24,08,21,18.70
2016,08,24,08,22,18.70
2016,08,24,08,23,18.70
2016,08,24,08,24,18.70
2016,08,24,08,25,18.70
2016,08,24,08,26,18.70
2016,08,24,08,27,18.70
2016,08,24,08,28,18.70
2016,08,24,08,29,18.70
2016,08,24,08,30,18.70
2016,08,24,08,31,18.80
2016,08,24,08,32,18.80
2016,08,24,08,33,18.80
2016,08,24,08,34,18.90
2016,08,24,08,35,18.90
2016,08,24,08,36,19.00
2016,08,24,08,37,19.00
2016,08,24,08,38,19.10
2016,08,24,08,39,19.10
2016,08,24,08,40,19.10
2016,08,24,08,41,19.20
2016,08,24,08,42,19.20
2016,08,24,08,43,19.20
2016,08,24,08,44,19.30
2016,08,24,08,45,19.30
2016,08,24,08,46,19.40
2016,08,24,08,47,19.40
2016,08,24,08,48,19.50
2016,08,24,08,49,19.60
2016,08,24,08,50,19.60
2016,08,24,08,51,19.70
2016,08,24,08,52,19.80
2016,08,24,08,53,19.80
2016,08,24,08,54,19.90
2016,08,24,08,55,20.00
2016,08,24,08,56,20.00
2016,08,24,08,57,20.10
2016,08,24,08,58,20.20
2016,08,24,08,59,20.20
2016,08,24,09,00,20.20
2016,08,24,09,01,20.20
2016,08,24,09,02,20.30
2016,08,24,09,03,20.30
2016,08,24,09,04,20.30
2016,08,24,09,05,20.30
2016,08,24,09,06,20.30
2016,08,24,09,07,20.20
2016,08,24,09,08,20.20
2016,08,24,09,09,20.20
2016,08,24,09,10,20.20
2016,08,24,09,11,20.30
2016,08,24,09,12,20.30
2016,08,24,09,13,20.40
2016,08,24,09,14,20.40
2016,08,24,09,15,20.40
2016,08,24,09,16,20.50
2016,08,24,09,17,20.50
2016,08,24,09,18,20.60
2016,08,24,09,19,20.60
2016,08,24,09,20,20.60
2016,08,24,09,21,20.60
2016,08,24,09,22,20.60
2016,08,24,09,23,20.60
2016,08,24,09,24,20.70
2016,08,24,09,25,20.70
2016,08,24,09,26,20.70
2016,08,24,09,27,20.70
2016,08,24,09,28,20.80
2016,08,24,09,29,20.80
2016,08,24,09,30,20.80
2016,08,24,09,31,20.80
2016,08,24,09,32,20.80
2016,08,24,09,33,20.90
2016,08,24,09,34,21.00
2016,08,24,09,35,21.00
2016,08,24,09,36,21.10
2016,08,24,09,37,21.20
2016,08,24,09,38,21.20
2016,08,24,09,39,21.20
2016,08,24,09,40,21.30
2016,08,24,09,41,21.30
2016,08,24,09,42,21.30
2016,08,24,09,43,21.30
2016,08,24,09,44,21.30
2016,08,24,09,45,21.30
2016,08,24,09,46,21.40
2016,08,24,09,47,21.40
2016,08,24,09,48,21.40
2016,08,24,09,49,21.40
2016,08,24,09,50,21.40
2016,08,24,09,51,21.30
2016,08,24,09,52,21.30
2016,08,24,09,53,21.20
2016,08,24,09,54,21.10
2016,08,24,09,55,21.10
2016,08,24,09,56,21.00
2016,08,24,09,57,20.90
2016,08,24,09,58,20.80
2016,08,24,09,59,20.80
2016,08,24,10,00,20.70
2016,08,24,10,01,20.60
2016,08,24,10,02,20.60
2016,08,24,10,03,20.60
2016,08,24,10,04,20.60
2016,08,24,10,05,20.60
2016,08,24,10,06,20.60
2016,08,24,10,07,20.60
2016,08,24,10,08,20.60
2016,08,24,10,09,20.70
2016,08,24,10,10,20.70
2016,08,24,10,11,20.80
2016,08,24,10,12,20.80
2016,08,24,10,13,20.80
2016,08,24,10,14,20.90
2016,08,24,10,15,20.90
2016,08,24,10,16,20.90
2016,08,24,10,17,20.90
2016,08,24,10,18,20.90
2016,08,24,10,19,20.90
2016,08,24,10,20,21.00
2016,08,24,10,21,21.00
2016,08,24,10,22,21.10
2016,08,24,10,23,21.10
2016,08,24,10,24,21.20
2016,08,24,10,25,21.30
2016,08,24,10,26,21.40
2016,08,24,10,27,21.40
2016,08,24,10,28,21.50
2016,08,24,10,29,21.60
2016,08,24,10,30,21.60
2016,08,24,10,31,21.70
2016,08,24,10,32,21.70
2016,08,24,10,33,21.70
2016,08,24,10,34,21.70
2016,08,24,10,35,21.70
2016,08,24,10,36,21.70
2016,08,24,10,37,21.70
2016,08,24,10,38,21.70
2016,08,24,10,39,21.70
2016,08,24,10,40,21.60
2016,08,24,10,41,21.60
2016,08,24,10,42,21.60
2016,08,24,10,43,21.60
2016,08,24,10,44,21.60
2016,08,24,10,45,21.60
2016,08,24,10,46,21.50
2016,08,24,10,47,21.50
2016,08,24,10,48,21.50
2016,08,24,10,49,21.40
2016,08,24,10,50,21.40
2016,08,24,10,51,21.40
2016,08,24,10,52,21.40
2016,08,24,10,53,21.30
2016,08,24,10,54,21.40
2016,08,24,10,55,21.40
2016,08,24,10,56,21.40
2016,08,24,10,57,21.40
2016,08,24,10,58,21.30
2016,08,24,10,59,21.30
2016,08,24,11,00,21.30
2016,08,24,11,01,21.30
2016,08,24,11,02,21.30
2016,08,24,11,03,21.40
2016,08,24,11,04,21.40
2016,08,24,11,05,21.50
2016,08,24,11,06,21.60
2016,08,24,11,07,21.70
2016,08,24,11,08,21.70
2016,08,24,11,09,21.80
2016,08,24,11,10,21.70
2016,08,24,11,11,21.70
2016,08,24,11,12,21.60
2016,08,24,11,13,21.60
2016,08,24,11,14,21.50
2016,08,24,11,15,21.40
2016,08,24,11,16,21.30
2016,08,24,11,17,21.30
2016,08,24,11,18,21.30
2016,08,24,11,19,21.30
2016,08,24,11,20,21.20
2016,08,24,11,21,21.20
2016,08,24,11,22,21.20
2016,08,24,11,23,21.30
2016,08,24,11,24,21.30
2016,08,24,11,25,21.40
2016,08,24,11,26,21.40
2016,08,24,11,27,21.40
2016,08,24,11,28,21.40
2016,08,24,11,29,21.40
2016,08,24,11,30,21.40
2016,08,24,11,31,21.30
2016,08,24,11,32,21.30
2016,08,24,11,33,21.30
2016,08,24,11,34,21.30
2016,08,24,11,35,21.30
2016,08,24,11,36,21.20
2016,08,24,11,37,21.20
2016,08,24,11,38,21.20
2016,08,24,11,39,21.20
2016,08,24,11,40,21.20
2016,08,24,11,41,21.20
2016,08,24,11,42,21.20
2016,08,24,11,43,21.30
2016,08,24,11,44,21.30
2016,08,24,11,45,21.30
2016,08,24,11,46,21.40
2016,08,24,11,47,21.40
2016,08,24,11,48,21.40
2016,08,24,11,49,21.40
2016,08,24,11,50,21.50
2016,08,24,11,51,21.50
2016,08,24,11,52,21.50
2016,08,24,11,53,21.60
2016,08,24,11,54,21.60
2016,08,24,11,55,21.60
2016,08,24,11,56,21.60
2016,08,24,11,57,21.50
2016,08,24,11,58,21.50
2016,08,24,11,59,21.40
2016,08,24,12,00,21.30
2016,08,24,12,01,21.30
2016,08,24,12,02,21.20
2016,08,24,12,03,21.20
2016,08,24,12,04,21.10
2016,08,24,12,05,21.10
2016,08,24,12,06,21.00
2016,08,24,12,07,21.00
2016,08,24,12,08,20.90
2016,08,24,12,09,21.00
2016,08,24,12,10,21.00
2016,08,24,12,11,21.10
2016,08,24,12,12,21.10
2016,08,24,12,13,21.20
2016,08,24,12,14,21.30
2016,08,24,12,15,21.30
2016,08,24,12,16,21.40
2016,08,24,12,17,21.40
2016,08,24,12,18,21.40
2016,08,24,12,19,21.40
2016,08,24,12,20,21.50
2016,08,24,12,21,21.50
2016,08,24,12,22,21.50
2016,08,24,12,23,21.50
2016,08,24,12,24,21.40
2016,08,24,12,25,21.30
2016,08,24,12,26,21.30
2016,08,24,12,27,21.20
2016,08,24,12,28,21.20
2016,08,24,12,29,21.20
2016,08,24,12,30,21.20
2016,08,24,12,31,21.20
2016,08,24,12,32,21.20
2016,08,24,12,33,21.30
2016,08,24,12,34,21.30
2016,08,24,12,35,21.50
2016,08,24,12,36,21.60
2016,08,24,12,37,21.70
2016,08,24,12,38,21.70
2016,08,24,12,39,21.70
2016,08,24,12,40,21.70
2016,08,24,12,41,21.70
2016,08,24,12,42,21.60
2016,08,24,12,43,21.60
2016,08,24,12,44,21.50
2016,08,24,12,45,21.50
2016,08,24,12,46,21.40
2016,08,24,12,47,21.40
2016,08,24,12,48,21.40
2016,08,24,12,49,21.50
2016,08,24,12,50,21.60
2016,08,24,12,51,21.60
2016,08,24,12,52,21.60
2016,08,24,12,53,21.50
2016,08,24,12,54,21.50
2016,08,24,12,55,21.40
2016,08,24,12,56,21.40
2016,08,24,12,57,21.40
2016,08,24,12,58,21.50
2016,08,24,12,59,21.50
2016,08,24,13,00,21.50
2016,08,24,13,01,21.50
2016,08,24,13,02,21.60
2016,08,24,13,03,21.60
2016,08,24,13,04,21.70
2016,08,24,13,05,21.80
2016,08,24,13,06,21.90
2016,08,24,13,07,22.00
2016,08,24,13,08,22.00
2016,08,24,13,09,22.20
2016,08,24,13,10,22.20
2016,08,24,13,11,22.40
2016,08,24,13,12,22.50
2016,08,24,13,13,22.70
2016,08,24,13,14,22.80
2016,08,24,13,15,23.00
2016,08,24,13,16,23.20
2016,08,24,13,17,23.40
2016,08,24,13,18,23.50
2016,08,24,13,19,23.70
2016,08,24,13,20,23.80
2016,08,24,13,21,24.00
2016,08,24,13,22,24.10
2016,08,24,13,23,24.10
2016,08,24,13,24,24.20
2016,08,24,13,25,24.20
2016,08,24,13,26,24.30
2016,08,24,13,27,24.30
2016,08,24,13,28,24.30
2016,08,24,13,29,24.20
2016,08,24,13,30,24.20
2016,08,24,13,31,24.20
2016,08,24,13,32,24.10
2016,08,24,13,33,24.10
2016,08,24,13,34,24.00
2016,08,24,13,35,23.90
2016,08,24,13,36,23.90
2016,08,24,13,37,23.90
2016,08,24,13,38,23.90
2016,08,24,13,39,23.80
2016,08,24,13,40,23.80
2016,08,24,13,41,23.70
2016,08,24,13,42,23.70
2016,08,24,13,43,23.70
2016,08,24,13,44,23.60
2016,08,24,13,45,23.60
2016,08,24,13,46,23.50
2016,08,24,13,47,23.40
2016,08,24,13,48,23.40
2016,08,24,13,49,23.50
2016,08,24,13,50,23.60
2016,08,24,13,51,23.60
2016,08,24,13,52,23.70
2016,08,24,13,53,23.70
2016,08,24,13,54,23.70
2016,08,24,13,55,23.70
2016,08,24,13,56,23.80
2016,08,24,13,57,23.80
2016,08,24,13,58,23.80
2016,08,24,13,59,23.80
2016,08,24,14,00,23.80
2016,08,24,14,01,23.80
2016,08,24,14,02,23.90
2016,08,24,14,03,24.00
2016,08,24,14,04,24.10
2016,08,24,14,05,24.20
2016,08,24,14,06,24.30
2016,08,24,14,07,24.40
2016,08,24,14,08,24.50
2016,08,24,14,09,24.60
2016,08,24,14,10,24.70
2016,08,24,14,11,24.80
2016,08,24,14,12,24.80
2016,08,24,14,13,25.00
2016,08,24,14,14,25.10
2016,08,24,14,15,25.20
2016,08,24,14,16,25.30
2016,08,24,14,17,25.40
2016,08,24,14,18,25.40
2016,08,24,14,19,25.50
2016,08,24,14,20,25.60
2016,08,24,14,21,25.70
2016,08,24,14,22,25.70
2016,08,24,14,23,25.80
2016,08,24,14,24,25.80
2016,08,24,14,25,25.80
2016,08,24,14,26,25.80
2016,08,24,14,27,25.80
2016,08,24,14,28,25.70
2016,08,24,14,29,25.70
2016,08,24,14,30,25.70
2016,08,24,14,31,25.70
2016,08,24,14,32,25.60
2016,08,24,14,33,25.60
2016,08,24,14,34,25.60
2016,08,24,14,35,25.60
2016,08,24,14,36,25.60
2016,08,24,14,37,25.60
2016,08,24,14,38,25.60
2016,08,24,14,39,25.50
2016,08,24,14,40,25.50
2016,08,24,14,41,25.40
2016,08,24,14,42,25.30
2016,08,24,14,43,25.20
2016,08,24,14,44,25.10
2016,08,24,14,45,25.00
2016,08,24,14,46,24.90
2016,08,24,14,47,24.80
2016,08,24,14,48,24.70
2016,08,24,14,49,24.60
2016,08,24,14,50,24.40
2016,08,24,14,51,24.30
2016,08,24,14,52,24.20
2016,08,24,14,53,24.10
2016,08,24,14,54,24.00
2016,08,24,14,55,23.90
2016,08,24,14,56,23.90
2016,08,24,14,57,23.80
2016,08,24,14,58,23.80
2016,08,24,14,59,23.70
2016,08,24,15,00,23.70
2016,08,24,15,01,23.70
2016,08,24,15,02,23.80
2016,08,24,15,03,23.80
2016,08,24,15,04,23.80
2016,08,24,15,05,23.90
2016,08,24,15,06,24.00
2016,08,24,15,07,24.00
2016,08,24,15,08,24.10
2016,08,24,15,09,24.30
2016,08,24,15,10,24.30
2016,08,24,15,11,24.40
2016,08,24,15,12,24.40
2016,08,24,15,13,24.50
2016,08,24,15,14,24.50
2016,08,24,15,15,24.60
2016,08,24,15,16,24.70
2016,08,24,15,17,24.70
2016,08,24,15,18,24.80
2016,08,24,15,19,24.80
2016,08,24,15,20,24.90
2016,08,24,15,21,24.90
2016,08,24,15,22,24.90
2016,08,24,15,23,25.00
2016,08,24,15,24,25.10
2016,08,24,15,25,25.10
2016,08,24,15,26,25.20
2016,08,24,15,27,25.30
2016,08,24,15,28,25.30
2016,08,24,15,29,25.40
2016,08,24,15,30,25.50
2016,08,24,15,31,25.50
2016,08,24,15,32,25.60
2016,08,24,15,33,25.60
2016,08,24,15,34,25.70
2016,08,24,15,35,25.70
2016,08,24,15,36,25.70
2016,08,24,15,37,25.70
2016,08,24,15,38,25.70
2016,08,24,15,39,25.70
2016,08,24,15,40,25.70
2016,08,24,15,41,25.70
2016,08,24,15,42,25.60
2016,08,24,15,43,25.60
2016,08,24,15,44,25.60
2016,08,24,15,45,25.60
2016,08,24,15,46,25.60
2016,08,24,15,47,25.60
2016,08,24,15,48,25.60
2016,08,24,15,49,25.60
2016,08,24,15,50,25.60
2016,08,24,15,51,25.70
2016,08,24,15,52,25.70
2016,08,24,15,53,25.70
2016,08,24,15,54,25.70
2016,08,24,15,55,25.70
2016,08,24,15,56,25.70
2016,08,24,15,57,25.70
2016,08,24,15,58,25.70
2016,08,24,15,59,25.70
2016,08,24,16,00,25.70
2016,08,24,16,01,25.70
2016,08,24,16,02,25.70
2016,08,24,16,03,25.70
2016,08,24,16,04,25.70
2016,08,24,16,05,25.70
2016,08,24,16,06,25.70
2016,08,24,16,07,25.80
2016,08,24,16,08,25.80
2016,08,24,16,09,25.80
2016,08,24,16,10,25.80
2016,08,24,16,11,25.80
2016,08,24,16,12,25.80
2016,08,24,16,13,25.90
2016,08,24,16,14,25.90
2016,08,24,16,15,25.90
2016,08,24,16,16,25.90
2016,08,24,16,17,25.90
2016,08,24,16,18,26.00
2016,08,24,16,19,26.00
2016,08,24,16,20,26.00
2016,08,24,16,21,26.00
2016,08,24,16,22,26.10
2016,08,24,16,23,26.10
2016,08,24,16,24,26.10
2016,08,24,16,25,26.10
2016,08,24,16,26,26.10
2016,08,24,16,27,26.10
2016,08,24,16,28,26.10
2016,08,24,16,29,26.20
2016,08,24,16,30,26.20
2016,08,24,16,31,26.30
2016,08,24,16,32,26.30
2016,08,24,16,33,26.40
2016,08,24,16,34,26.40
2016,08,24,16,35,26.50
2016,08,24,16,36,26.50
2016,08,24,16,37,26.60
2016,08,24,16,38,26.60
2016,08,24,16,39,26.60
2016,08,24,16,40,26.60
2016,08,24,16,41,26.60
2016,08,24,16,42,26.60
2016,08,24,16,43,26.60
2016,08,24,16,44,26.60
2016,08,24,16,45,26.60
2016,08,24,16,46,26.60
2016,08,24,16,47,26.60
2016,08,24,16,48,26.60
2016,08,24,16,49,26.60
2016,08,24,16,50,26.60
2016,08,24,16,51,26.60
2016,08,24,16,52,26.70
2016,08,24,16,53,26.70
2016,08,24,16,54,26.70
2016,08,24,16,55,26.70
2016,08,24,16,56,26.70
2016,08,24,16,57,26.70
2016,08,24,16,58,26.70
2016,08,24,16,59,26.70
2016,08,24,17,00,26.70
2016,08,24,17,01,26.70
2016,08,24,17,02,26.70
2016,08,24,17,03,26.60
2016,08,24,17,04,26.60
2016,08,24,17,05,26.60
2016,08,24,17,06,26.60
2016,08,24,17,07,26.60
2016,08,24,17,08,26.50
2016,08,24,17,09,26.50
2016,08,24,17,10,26.60
2016,08,24,17,11,26.60
2016,08,24,17,12,26.60
2016,08,24,17,13,26.60
2016,08,24,17,14,26.60
2016,08,24,17,15,26.60
2016,08,24,17,16,26.60
2016,08,24,17,17,26.60
2016,08,24,17,18,26.60
2016,08,24,17,19,26.60